Location: Central Springs Elementary School at Manly
(43.2859°N, 93.1959°W)
Time: 05:59:47
(UTC+00:00)

UNISAT 6 - Pass Details

Date: 10 December 2024
Orbit: 584 x 653 km, 97.7° (Epoch: 18 January)

Event Time Altitude Azimuth Distance (km) Brightness Sun altitude
Rises 00:08:09 0° 351° (N) 2,826 ? -15.9°
Reaches altitude 10° 00:11:35 10° 320° (NW) 1,927 ? -16.5°
Maximum altitude 00:13:09 12° 298° (WNW) 1,805 ? -16.8°
Drops below altitude 10° 00:14:42 10° 276° (W) 1,933 ? -17.1°
Sets 00:18:11 0° 245° (WSW) 2,844 ? -17.7°
